QPF
0.00 0.00 0.00 0.00 0.00 0.00 0.00 0.00 0.00 0.00 0.00 0.00 0.00 0.00 0.00 0.00 0.00 0.00 0.00 0.00 0.00 0.00 0.00 0.00 0.00 0.00 0.00 0.00 0.00 0.01 0.01 0.02 0.04 0.07 0.10 0.14 0.23 0.32 0.35 0.26 0.15 0.12 0.12
0.00 0.00 0.00 0.00 0.00 0.00 0.00 0.00 0.00 0.00 0.00 0.00 0.00 0.00 0.00 0.00 0.00 0.00 0.00 0.00 0.00 0.00 0.00 0.00 0.00 0.00 0.00 0.00 0.00 0.01 0.01 0.02 0.03 0.06 0.09 0.12 0.17 0.25 0.32 0.32 0.22 0.13 0.11
0.00 0.00 0.00 0.00 0.00 0.00 0.00 0.00 0.00 0.00 0.00 0.00 0.00 0.00 0.00 0.00 0.00 0.00 0.00 0.00 0.00 0.00 0.00 0.00 0.00 0.00 0.00 0.01 0.01 0.01 0.01 0.02 0.02 0.04 0.07 0.11 0.14 0.20 0.26 0.32 0.30 0.20 0.13
0.00 0.00 0.00 0.00 0.00 0.00 0.00 0.00 0.00 0.00 0.00 0.00 0.00 0.00 0.00 0.00 0.00 0.00 0.00 0.00 0.00 0.00 0.00 0.00 0.00 0.00 0.00 0.01 0.01 0.01 0.02 0.02 0.02 0.03 0.06 0.10 0.15 0.18 0.23 0.27 0.30 0.28 0.19
0.00 0.00 0.00 0.00 0.00 0.00 0.00 0.00 0.00 0.00 0.00 0.00 0.00 0.00 0.00 0.00 0.00 0.00 0.00 0.00 0.00 0.00 0.00 0.00 0.00 0.00 0.00 0.00 0.01 0.01 0.01 0.02 0.03 0.03 0.04 0.08 0.14 0.18 0.23 0.26 0.27 0.29 0.25
0.00 0.00 0.00 0.00 0.00 0.00 0.00 0.00 0.00 0.00 0.00 0.00 0.00 0.00 0.00 0.00 0.00 0.00 0.00 0.00 0.00 0.00 0.00 0.00 0.00 0.00 0.00 0.00 0.00 0.01 0.01 0.02 0.03 0.03 0.04 0.06 0.11 0.17 0.21 0.26 0.27 0.28 0.29
0.00 0.00 0.00 0.00 0.00 0.00 0.00 0.00 0.00 0.00 0.00 0.00 0.00 0.00 0.00 0.00 0.00 0.00 0.00 0.00 0.00 0.00 0.01 0.00 0.00 0.00 0.00 0.00 0.00 0.00 0.01 0.02 0.03 0.04 0.04 0.05 0.08 0.14 0.20 0.25 0.28 0.29 0.29
0.00 0.00 0.00 0.00 0.00 0.00 0.00 0.00 0.00 0.00 0.00 0.00 0.00 0.00 0.00 0.00 0.00 0.00 0.00 0.00 0.00 0.01 0.01 0.00 0.00 0.00 0.00 0.00 0.00 0.00 0.01 0.02 0.03 0.04 0.04 0.06 0.07 0.12 0.18 0.24 0.27 0.30 0.31
0.00 0.00 0.00 0.00 0.00 0.00 0.00 0.00 0.00 0.00 0.00 0.00 0.00 0.01 0.02 0.02 0.01 0.00 0.00 0.00 0.00 0.00 0.00 0.00 0.00 0.00 0.00 0.00 0.00 0.00 0.01 0.02 0.03 0.04 0.05 0.06 0.08 0.10 0.16 0.22 0.28 0.31 0.33
0.00 0.00 0.00 0.00 0.00 0.00 0.00 0.00 0.00 0.00 0.01 0.01 0.01 0.01 0.02 0.02 0.02 0.01 0.00 0.00 0.00 0.00 0.00 0.00 0.00 0.00 0.00 0.00 0.00 0.00 0.01 0.02 0.03 0.04 0.05 0.06 0.07 0.11 0.15 0.21 0.27 0.32 0.34
0.00 0.00 0.00 0.00 0.00 0.00 0.00 0.00 0.00 0.00 0.01 0.02 0.02 0.02 0.02 0.02 0.02 0.03 0.02 0.00 0.00 0.00 0.00 0.00 0.00 0.00 0.00 0.00 0.00 0.00 0.01 0.01 0.02 0.03 0.04 0.05 0.06 0.09 0.12 0.17 0.25 0.31 0.33
0.00 0.00 0.00 0.00 0.00 0.00 0.00 0.00 0.00 0.01 0.01 0.02 0.03 0.03 0.03 0.03 0.02 0.03 0.02 0.01 0.00 0.00 0.00 0.00 0.00 0.00 0.00 0.00 0.00 0.00 0.00 0.01 0.01 0.02 0.03 0.03 0.04 0.05 0.08 0.12 0.21 0.30 0.33
0.00 0.00 0.00 0.00 0.00 0.00 0.00 0.00 0.01 0.01 0.02 0.03 0.03 0.03 0.03 0.03 0.03 0.03 0.04 0.02 0.01 0.00 0.00 0.00 0.00 0.00 0.00 0.00 0.00 0.00 0.00 0.00 0.01 0.01 0.02 0.02 0.03 0.03 0.04 0.06 0.14 0.27 0.37
0.00 0.00 0.00 0.00 0.00 0.00 0.00 0.00 0.01 0.01 0.02 0.03 0.03 0.04 0.04 0.04 0.04 0.04 0.05 0.06 0.04 0.01 0.00 0.00 0.00 0.00 0.00 0.00 0.00 0.00 0.00 0.01 0.01 0.01 0.02 0.02 0.02 0.02 0.02 0.04 0.08 0.19 0.33
0.00 0.00 0.00 0.00 0.00 0.00 0.00 0.00 0.01 0.01 0.03 0.03 0.04 0.04 0.05 0.05 0.05 0.05 0.05 0.07 0.09 0.06 0.02 0.00 0.00 0.00 0.00 0.00 0.00 0.00 0.00 0.01 0.01 0.01 0.01 0.02 0.02 0.02 0.02 0.02 0.04 0.10 0.26
0.00 0.00 0.00 0.00 0.00 0.00 0.00 0.01 0.01 0.01 0.02 0.02 0.03 0.04 0.05 0.05 0.05 0.05 0.06 0.07 0.08 0.09 0.05 0.01 0.00 0.00 0.00 0.00 0.00 0.00 0.00 0.00 0.00 0.01 0.01 0.02 0.02 0.02 0.02 0.03 0.03 0.05 0.14
0.00 0.00 0.00 0.00 0.00 0.00 0.00 0.01 0.01 0.01 0.01 0.02 0.03 0.04 0.04 0.05 0.05 0.06 0.06 0.06 0.06 0.07 0.06 0.02 0.00 0.00 0.00 0.00 0.00 0.00 0.00 0.00 0.00 0.00 0.01 0.01 0.02 0.02 0.03 0.03 0.03 0.03 0.06
0.00 0.00 0.00 0.00 0.00 0.00 0.00 0.01 0.01 0.01 0.01 0.02 0.02 0.03 0.04 0.04 0.05 0.06 0.06 0.05 0.04 0.04 0.04 0.02 0.01 0.00 0.00 0.01 0.01 0.00 0.00 0.00 0.00 0.00 0.01 0.01 0.01 0.02 0.03 0.03 0.03 0.02 0.03
0.00 0.00 0.00 0.00 0.00 0.00 0.01 0.01 0.01 0.01 0.01 0.01 0.01 0.02 0.03 0.04 0.05 0.06 0.06 0.06 0.05 0.04 0.04 0.04 0.02 0.01 0.02 0.02 0.01 0.00 0.00 0.00 0.00 0.00 0.01 0.01 0.02 0.02 0.03 0.03 0.04 0.03 0.02
0.00 0.00 0.00 0.00 0.00 0.00 0.01 0.04 0.03 0.02 0.01 0.01 0.01 0.01 0.02 0.03 0.04 0.06 0.07 0.06 0.05 0.04 0.03 0.03 0.03 0.02 0.03 0.02 0.01 0.01 0.01 0.01 0.01 0.01 0.01 0.01 0.02 0.02 0.03 0.04 0.04 0.03 0.02
0.00 0.00 0.00 0.00 0.00 0.00 0.02 0.07 0.06 0.04 0.02 0.01 0.00 0.01 0.01 0.01 0.03 0.06 0.07 0.06 0.04 0.03 0.02 0.02 0.02 0.02 0.02 0.01 0.02 0.02 0.01 0.01 0.01 0.02 0.01 0.01 0.02 0.02 0.03 0.04 0.05 0.04 0.03
0.00 0.00 0.00 0.00 0.00 0.00 0.01 0.05 0.06 0.04 0.02 0.01 0.01 0.01 0.00 0.01 0.02 0.02 0.03 0.03 0.03 0.03 0.03 0.02 0.02 0.02 0.01 0.01 0.01 0.02 0.02 0.01 0.01 0.02 0.01 0.01 0.03 0.04 0.04 0.04 0.05 0.05 0.04
0.00 0.00 0.00 0.00 0.00 0.00 0.01 0.04 0.06 0.04 0.01 0.01 0.01 0.01 0.01 0.01 0.01 0.02 0.02 0.01 0.01 0.01 0.02 0.03 0.02 0.01 0.02 0.02 0.02 0.02 0.02 0.02 0.01 0.01 0.02 0.02 0.04 0.05 0.06 0.06 0.07 0.07 0.05
0.00 0.00 0.00 0.00 0.00 0.00 0.00 0.02 0.05 0.03 0.01 0.01 0.01 0.01 0.01 0.01 0.01 0.04 0.02 0.01 0.00 0.01 0.01 0.02 0.02 0.02 0.02 0.03 0.04 0.03 0.03 0.02 0.01 0.03 0.03 0.05 0.06 0.07 0.07 0.07 0.09 0.09 0.08
0.00 0.00 0.00 0.00 0.00 0.00 0.00 0.02 0.05 0.04 0.02 0.01 0.01 0.01 0.01 0.01 0.02 0.04 0.02 0.01 0.00 0.01 0.01 0.01 0.02 0.02 0.03 0.03 0.04 0.04 0.03 0.02 0.03 0.05 0.05 0.07 0.09 0.09 0.09 0.09 0.11 0.12 0.11
0.00 0.00 0.00 0.00 0.00 0.00 0.00 0.02 0.05 0.06 0.03 0.02 0.01 0.01 0.01 0.02 0.03 0.03 0.02 0.01 0.02 0.02 0.01 0.01 0.01 0.01 0.01 0.01 0.02 0.03 0.04 0.04 0.04 0.06 0.07 0.08 0.12 0.14 0.12 0.12 0.14 0.14 0.13
MSLP
1031.29 1031.02 1030.64 1030.18 1029.66 1029.12 1028.59 1028.10 1027.63 1027.18 1026.73 1026.25 1025.73 1025.15 1024.51 1023.82 1023.09 1022.32 1021.53 1020.71 1019.89 1019.05 1018.22 1017.41 1016.64 1015.94 1015.30 1014.74 1014.24 1013.79 1013.37 1012.95 1012.53 1012.13 1011.77 1011.48 1011.31 1011.27 1011.40 1011.69 1012.12 1012.66 1013.26
1031.38 1031.12 1030.73 1030.26 1029.74 1029.21 1028.70 1028.22 1027.78 1027.36 1026.93 1026.47 1025.94 1025.35 1024.68 1023.94 1023.14 1022.30 1021.42 1020.53 1019.62 1018.71 1017.82 1016.96 1016.17 1015.46 1014.82 1014.27 1013.79 1013.36 1012.94 1012.53 1012.12 1011.71 1011.34 1011.03 1010.83 1010.78 1010.89 1011.16 1011.58 1012.12 1012.73
1031.37 1031.12 1030.75 1030.29 1029.79 1029.28 1028.79 1028.34 1027.92 1027.51 1027.09 1026.62 1026.08 1025.46 1024.75 1023.96 1023.10 1022.19 1021.25 1020.28 1019.30 1018.34 1017.40 1016.52 1015.71 1014.99 1014.37 1013.83 1013.36 1012.94 1012.54 1012.14 1011.73 1011.32 1010.93 1010.60 1010.38 1010.29 1010.37 1010.62 1011.03 1011.56 1012.19
1031.30 1031.06 1030.72 1030.30 1029.83 1029.35 1028.89 1028.46 1028.04 1027.62 1027.18 1026.68 1026.10 1025.43 1024.68 1023.85 1022.95 1021.99 1021.00 1019.99 1018.98 1017.99 1017.03 1016.13 1015.32 1014.60 1013.98 1013.45 1013.00 1012.59 1012.20 1011.80 1011.38 1010.95 1010.54 1010.18 1009.92 1009.79 1009.82 1010.04 1010.42 1010.94 1011.56
1031.18 1030.98 1030.68 1030.30 1029.88 1029.43 1028.99 1028.55 1028.12 1027.66 1027.16 1026.60 1025.96 1025.25 1024.45 1023.59 1022.67 1021.71 1020.72 1019.71 1018.70 1017.71 1016.75 1015.85 1015.04 1014.31 1013.69 1013.17 1012.71 1012.30 1011.91 1011.50 1011.07 1010.63 1010.18 1009.78 1009.46 1009.27 1009.23 1009.38 1009.71 1010.20 1010.81
1031.04 1030.86 1030.60 1030.28 1029.90 1029.49 1029.06 1028.60 1028.12 1027.59 1027.01 1026.37 1025.66 1024.89 1024.07 1023.21 1022.31 1021.38 1020.43 1019.47 1018.51 1017.54 1016.61 1015.71 1014.89 1014.16 1013.52 1012.98 1012.51 1012.08 1011.67 1011.25 1010.80 1010.33 1009.84 1009.38 1008.99 1008.72 1008.60 1008.67 1008.92 1009.35 1009.92
1030.86 1030.70 1030.48 1030.20 1029.87 1029.48 1029.05 1028.56 1028.01 1027.40 1026.73 1025.99 1025.22 1024.41 1023.58 1022.74 1021.90 1021.05 1020.19 1019.31 1018.41 1017.50 1016.59 1015.70 1014.87 1014.11 1013.44 1012.86 1012.35 1011.90 1011.47 1011.03 1010.56 1010.05 1009.53 1009.01 1008.54 1008.18 1007.96 1007.92 1008.07 1008.42 1008.94
1030.63 1030.48 1030.29 1030.04 1029.74 1029.37 1028.92 1028.39 1027.78 1027.08 1026.32 1025.50 1024.67 1023.83 1023.02 1022.23 1021.48 1020.74 1019.99 1019.21 1018.40 1017.55 1016.67 1015.78 1014.92 1014.11 1013.39 1012.75 1012.20 1011.71 1011.26 1010.80 1010.32 1009.79 1009.23 1008.67 1008.14 1007.68 1007.35 1007.20 1007.24 1007.48 1007.93
1030.35 1030.19 1030.00 1029.78 1029.49 1029.13 1028.67 1028.10 1027.43 1026.66 1025.82 1024.94 1024.07 1023.23 1022.45 1021.74 1021.08 1020.46 1019.83 1019.16 1018.43 1017.63 1016.76 1015.86 1014.96 1014.09 1013.30 1012.61 1012.00 1011.48 1011.00 1010.54 1010.05 1009.53 1008.97 1008.38 1007.80 1007.27 1006.85 1006.58 1006.50 1006.64 1006.99
1030.01 1029.82 1029.63 1029.41 1029.14 1028.78 1028.31 1027.71 1027.00 1026.18 1025.29 1024.38 1023.49 1022.66 1021.93 1021.29 1020.72 1020.20 1019.67 1019.09 1018.42 1017.65 1016.78 1015.86 1014.90 1013.97 1013.11 1012.35 1011.70 1011.15 1010.66 1010.21 1009.75 1009.26 1008.71 1008.13 1007.54 1006.97 1006.48 1006.13 1005.94 1005.97 1006.21
1029.64 1029.42 1029.21 1028.98 1028.70 1028.34 1027.87 1027.27 1026.54 1025.69 1024.78 1023.85 1022.97 1022.16 1021.47 1020.88 1020.38 1019.93 1019.47 1018.94 1018.30 1017.54 1016.66 1015.70 1014.69 1013.70 1012.78 1011.97 1011.28 1010.71 1010.23 1009.81 1009.39 1008.95 1008.46 1007.92 1007.35 1006.78 1006.26 1005.85 1005.58 1005.51 1005.64
1029.27 1029.01 1028.77 1028.53 1028.25 1027.89 1027.42 1026.82 1026.09 1025.25 1024.34 1023.42 1022.54 1021.76 1021.08 1020.53 1020.06 1019.63 1019.19 1018.67 1018.04 1017.26 1016.36 1015.36 1014.31 1013.28 1012.32 1011.47 1010.76 1010.19 1009.72 1009.33 1008.97 1008.59 1008.17 1007.70 1007.19 1006.66 1006.15 1005.72 1005.41 1005.25 1005.28
1028.92 1028.63 1028.36 1028.10 1027.81 1027.45 1027.00 1026.42 1025.71 1024.89 1024.01 1023.10 1022.24 1021.45 1020.78 1020.21 1019.73 1019.28 1018.82 1018.28 1017.62 1016.82 1015.90 1014.87 1013.81 1012.75 1011.78 1010.92 1010.20 1009.62 1009.17 1008.81 1008.49 1008.17 1007.82 1007.43 1007.00 1006.53 1006.07 1005.66 1005.33 1005.13 1005.09
1028.61 1028.29 1027.99 1027.71 1027.41 1027.06 1026.62 1026.07 1025.40 1024.62 1023.77 1022.89 1022.04 1021.25 1020.55 1019.94 1019.41 1018.90 1018.38 1017.79 1017.09 1016.27 1015.33 1014.31 1013.24 1012.20 1011.23 1010.37 1009.65 1009.07 1008.62 1008.26 1007.96 1007.68 1007.39 1007.06 1006.71 1006.32 1005.94 1005.57 1005.27 1005.05 1004.95
1028.33 1027.98 1027.66 1027.36 1027.06 1026.71 1026.30 1025.78 1025.15 1024.42 1023.61 1022.76 1021.92 1021.11 1020.38 1019.71 1019.11 1018.53 1017.93 1017.27 1016.53 1015.69 1014.76 1013.75 1012.73 1011.72 1010.77 1009.93 1009.21 1008.61 1008.13 1007.74 1007.42 1007.14 1006.86 1006.57 1006.27 1005.96 1005.65 1005.36 1005.11 1004.91 1004.80
1028.04 1027.68 1027.34 1027.02 1026.71 1026.37 1025.98 1025.50 1024.92 1024.24 1023.48 1022.67 1021.84 1021.03 1020.26 1019.53 1018.85 1018.18 1017.51 1016.80 1016.02 1015.18 1014.27 1013.31 1012.34 1011.39 1010.49 1009.66 1008.93 1008.30 1007.76 1007.30 1006.91 1006.56 1006.25 1005.96 1005.68 1005.42 1005.18 1004.96 1004.78 1004.62 1004.52
1027.70 1027.33 1026.98 1026.65 1026.32 1025.98 1025.61 1025.16 1024.63 1024.01 1023.31 1022.55 1021.75 1020.95 1020.15 1019.39 1018.64 1017.91 1017.18 1016.43 1015.64 1014.81 1013.94 1013.05 1012.14 1011.26 1010.41 1009.60 1008.86 1008.17 1007.55 1006.98 1006.47 1006.02 1005.61 1005.26 1004.96 1004.72 1004.52 1004.36 1004.24 1004.14 1004.08
1027.29 1026.91 1026.54 1026.19 1025.85 1025.51 1025.14 1024.73 1024.25 1023.68 1023.05 1022.34 1021.60 1020.82 1020.04 1019.26 1018.48 1017.72 1016.95 1016.18 1015.39 1014.59 1013.78 1012.95 1012.13 1011.32 1010.51 1009.73 1008.96 1008.21 1007.49 1006.80 1006.14 1005.54 1005.01 1004.56 1004.19 1003.91 1003.72 1003.59 1003.52 1003.49 1003.48
1026.80 1026.41 1026.02 1025.64 1025.28 1024.92 1024.56 1024.16 1023.71 1023.20 1022.63 1022.00 1021.32 1020.60 1019.86 1019.10 1018.34 1017.57 1016.80 1016.03 1015.27 1014.50 1013.75 1013.00 1012.25 1011.50 1010.75 1009.98 1009.20 1008.40 1007.58 1006.76 1005.96 1005.20 1004.52 1003.93 1003.46 1003.11 1002.88 1002.75 1002.70 1002.71 1002.76
1026.24 1025.83 1025.42 1025.01 1024.62 1024.23 1023.85 1023.45 1023.02 1022.56 1022.05 1021.49 1020.89 1020.25 1019.58 1018.87 1018.15 1017.42 1016.68 1015.94 1015.20 1014.48 1013.78 1013.09 1012.42 1011.73 1011.03 1010.29 1009.50 1008.66 1007.77 1006.85 1005.92 1005.02 1004.19 1003.46 1002.86 1002.41 1002.10 1001.92 1001.86 1001.88 1001.97
1025.66 1025.23 1024.79 1024.35 1023.91 1023.48 1023.06 1022.64 1022.21 1021.76 1021.30 1020.81 1020.30 1019.74 1019.16 1018.54 1017.89 1017.22 1016.52 1015.82 1015.13 1014.45 1013.80 1013.16 1012.54 1011.91 1011.26 1010.55 1009.78 1008.94 1008.02 1007.03 1006.02 1005.01 1004.05 1003.19 1002.46 1001.88 1001.46 1001.20 1001.09 1001.09 1001.18
1025.10 1024.66 1024.19 1023.70 1023.21 1022.72 1022.24 1021.77 1021.31 1020.87 1020.43 1020.00 1019.56 1019.10 1018.61 1018.08 1017.52 1016.92 1016.29 1015.64 1014.98 1014.34 1013.72 1013.13 1012.55 1011.97 1011.36 1010.71 1009.98 1009.16 1008.25 1007.26 1006.21 1005.14 1004.09 1003.12 1002.27 1001.56 1001.02 1000.65 1000.45 1000.39 1000.46
1024.59 1024.15 1023.66 1023.13 1022.58 1022.02 1021.47 1020.93 1020.42 1019.95 1019.52 1019.11 1018.73 1018.34 1017.94 1017.51 1017.04 1016.52 1015.95 1015.36 1014.75 1014.14 1013.54 1012.97 1012.42 1011.88 1011.32 1010.72 1010.05 1009.29 1008.43 1007.47 1006.43 1005.34 1004.26 1003.22 1002.27 1001.45 1000.78 1000.29 999.97 999.82 999.83
1024.16 1023.73 1023.23 1022.67 1022.07 1021.44 1020.81 1020.19 1019.62 1019.10 1018.64 1018.24 1017.89 1017.56 1017.24 1016.89 1016.50 1016.06 1015.55 1015.01 1014.43 1013.84 1013.26 1012.71 1012.17 1011.66 1011.14 1010.59 1009.98 1009.29 1008.50 1007.61 1006.62 1005.56 1004.48 1003.40 1002.39 1001.48 1000.70 1000.09 999.65 999.40 999.32
1023.79 1023.38 1022.89 1022.32 1021.68 1020.99 1020.29 1019.60 1018.95 1018.37 1017.88 1017.47 1017.13 1016.83 1016.56 1016.28 1015.96 1015.58 1015.14 1014.64 1014.09 1013.52 1012.95 1012.40 1011.87 1011.36 1010.86 1010.35 1009.79 1009.17 1008.46 1007.64 1006.72 1005.72 1004.66 1003.59 1002.55 1001.57 1000.71 1000.00 999.45 999.09 998.93
1023.43 1023.07 1022.61 1022.05 1021.39 1020.67 1019.92 1019.17 1018.46 1017.83 1017.30 1016.86 1016.52 1016.24 1016.00 1015.77 1015.50 1015.17 1014.78 1014.32 1013.80 1013.25 1012.68 1012.12 1011.58 1011.07 1010.57 1010.07 1009.54 1008.96 1008.30 1007.55 1006.70 1005.75 1004.75 1003.70 1002.66 1001.66 1000.75 999.96 999.33 998.88 998.63
Thickness
5439 5425 5410 5396 5383 5371 5362 5355 5349 5347 5345 5344 5345 5348 5353 5360 5370 5381 5397 5414 5435 5456 5477 5497 5516 5534 5551 5566 5582 5596 5610 5625 5638 5651 5663 5675 5685 5693 5699 5704 5706 5709 5710
5417 5401 5384 5370 5357 5346 5337 5331 5326 5323 5322 5321 5322 5322 5326 5332 5342 5351 5364 5381 5400 5422 5446 5468 5490 5510 5529 5547 5563 5580 5595 5610 5624 5638 5652 5664 5675 5685 5693 5699 5702 5705 5707
5394 5376 5361 5346 5334 5325 5317 5311 5306 5302 5299 5297 5297 5297 5301 5306 5314 5323 5335 5351 5369 5390 5413 5438 5462 5484 5505 5525 5543 5561 5577 5594 5609 5624 5639 5652 5665 5676 5686 5693 5698 5701 5703
5372 5355 5339 5326 5315 5306 5298 5292 5287 5282 5277 5273 5273 5273 5275 5280 5287 5296 5308 5323 5340 5360 5383 5407 5431 5455 5479 5500 5520 5540 5558 5576 5593 5609 5625 5640 5654 5666 5677 5686 5693 5697 5700
5354 5336 5321 5310 5299 5290 5282 5274 5267 5260 5255 5251 5249 5250 5250 5253 5259 5269 5281 5296 5314 5335 5356 5376 5399 5424 5449 5473 5496 5517 5537 5557 5575 5593 5610 5626 5641 5656 5668 5679 5687 5692 5696
5338 5321 5308 5296 5285 5276 5266 5257 5249 5242 5234 5227 5224 5223 5222 5225 5231 5240 5253 5269 5288 5308 5328 5348 5370 5394 5419 5444 5469 5493 5515 5537 5557 5576 5595 5612 5629 5644 5658 5670 5680 5687 5692
5325 5309 5295 5284 5272 5262 5251 5242 5233 5224 5215 5205 5198 5196 5198 5200 5204 5213 5224 5240 5259 5276 5296 5319 5342 5365 5389 5415 5441 5467 5491 5515 5537 5558 5578 5597 5615 5632 5647 5661 5672 5681 5687
5313 5298 5285 5272 5261 5250 5239 5228 5217 5206 5197 5186 5173 5169 5171 5178 5182 5188 5197 5213 5230 5247 5269 5293 5317 5341 5364 5388 5413 5440 5465 5491 5516 5539 5561 5582 5601 5619 5636 5651 5664 5674 5682
5303 5288 5275 5262 5250 5238 5227 5216 5203 5190 5179 5171 5159 5147 5143 5149 5158 5167 5175 5189 5206 5226 5247 5270 5295 5317 5340 5365 5389 5414 5440 5467 5493 5518 5542 5565 5586 5605 5623 5640 5655 5667 5676
5294 5280 5267 5254 5241 5229 5217 5205 5193 5178 5165 5158 5151 5142 5134 5131 5134 5147 5160 5171 5187 5208 5228 5250 5273 5296 5320 5342 5366 5391 5417 5444 5471 5497 5522 5546 5569 5590 5610 5628 5644 5658 5669
5286 5273 5260 5246 5233 5221 5209 5197 5184 5171 5159 5149 5142 5136 5131 5127 5126 5128 5143 5158 5174 5193 5213 5234 5256 5278 5299 5321 5344 5368 5395 5421 5448 5475 5501 5527 5550 5573 5594 5614 5633 5648 5661
5281 5267 5253 5240 5227 5215 5203 5191 5178 5166 5155 5147 5139 5133 5127 5124 5123 5125 5133 5146 5162 5182 5201 5221 5242 5262 5281 5302 5324 5349 5374 5401 5427 5454 5481 5507 5532 5555 5577 5599 5619 5637 5653
5275 5262 5248 5235 5223 5211 5199 5187 5174 5162 5153 5145 5138 5133 5128 5125 5124 5125 5131 5141 5155 5174 5192 5212 5231 5250 5269 5288 5309 5332 5356 5381 5407 5434 5462 5488 5514 5538 5561 5584 5605 5624 5642
5271 5258 5245 5232 5219 5207 5195 5183 5171 5160 5152 5144 5139 5134 5130 5128 5127 5128 5133 5139 5152 5169 5186 5205 5224 5242 5259 5277 5297 5318 5339 5362 5389 5417 5444 5471 5497 5522 5546 5568 5590 5611 5630
5268 5255 5242 5229 5217 5205 5193 5182 5170 5160 5152 5144 5139 5136 5132 5131 5131 5133 5137 5143 5150 5164 5183 5200 5217 5235 5251 5268 5287 5306 5326 5347 5373 5401 5428 5456 5482 5507 5531 5554 5576 5597 5617
5265 5252 5240 5228 5216 5204 5193 5181 5169 5160 5152 5145 5141 5138 5135 5135 5136 5138 5142 5148 5155 5164 5179 5197 5212 5228 5244 5261 5278 5295 5314 5336 5361 5387 5414 5441 5467 5493 5517 5541 5564 5585 5605
5264 5251 5239 5227 5216 5204 5193 5182 5170 5161 5153 5147 5142 5139 5138 5138 5140 5143 5147 5153 5160 5167 5179 5196 5210 5225 5240 5255 5270 5286 5305 5325 5348 5373 5400 5427 5454 5480 5505 5529 5552 5573 5594
5263 5251 5239 5227 5216 5205 5194 5183 5173 5164 5156 5149 5144 5141 5140 5141 5142 5146 5151 5156 5163 5171 5180 5193 5209 5223 5236 5250 5264 5279 5296 5316 5338 5363 5389 5416 5443 5469 5494 5518 5541 5562 5583
5263 5251 5239 5228 5217 5206 5196 5186 5176 5168 5159 5152 5147 5144 5142 5142 5145 5149 5154 5160 5166 5174 5182 5192 5205 5219 5232 5245 5258 5272 5288 5307 5329 5353 5378 5406 5433 5459 5484 5508 5530 5551 5572
5264 5253 5241 5230 5219 5209 5199 5190 5181 5173 5165 5157 5151 5147 5145 5144 5147 5152 5157 5162 5168 5174 5181 5190 5202 5214 5226 5239 5250 5262 5280 5298 5319 5342 5368 5394 5421 5448 5474 5500 5525 5544 5563
5265 5254 5243 5232 5222 5212 5203 5196 5188 5179 5170 5163 5157 5152 5149 5149 5151 5155 5160 5164 5168 5173 5180 5188 5198 5209 5220 5231 5241 5252 5268 5287 5310 5334 5357 5383 5411 5442 5468 5491 5512 5533 5552
5267 5256 5245 5235 5225 5216 5208 5203 5196 5186 5177 5169 5163 5157 5154 5152 5152 5155 5159 5164 5169 5172 5179 5185 5193 5201 5211 5222 5233 5245 5258 5275 5298 5325 5344 5372 5400 5429 5457 5482 5505 5525 5544
5270 5259 5248 5238 5228 5220 5214 5208 5201 5193 5184 5176 5169 5162 5158 5155 5154 5154 5158 5161 5164 5171 5178 5184 5189 5197 5207 5217 5228 5240 5252 5266 5286 5309 5330 5363 5393 5422 5449 5475 5497 5517 5536
5272 5262 5252 5241 5232 5225 5219 5214 5207 5198 5189 5181 5174 5168 5161 5157 5157 5160 5159 5160 5162 5168 5176 5183 5190 5199 5209 5218 5227 5238 5249 5264 5284 5307 5327 5356 5386 5415 5442 5467 5490 5510 5529
5275 5264 5255 5246 5237 5229 5223 5218 5212 5202 5194 5186 5179 5173 5166 5162 5162 5164 5162 5160 5164 5169 5177 5185 5193 5201 5211 5219 5228 5237 5247 5260 5280 5305 5325 5348 5376 5405 5434 5461 5484 5503 5522
5278 5268 5258 5249 5241 5233 5226 5221 5216 5207 5200 5192 5184 5177 5171 5168 5167 5167 5164 5163 5166 5172 5177 5183 5191 5199 5207 5215 5225 5233 5242 5255 5271 5294 5319 5337 5363 5390 5425 5454 5476 5496 5514